GFSWCAN_prec_cthk_153.txt.gz
RH
69 60 53 44 42 53 73 91 95 97 97 98 98 97 83 50 53 76 76 86 91 89 77 72 68 62 61 70 76 76 88 92 86 87 76 74 87 68 77 73 70 72 86 89 96 96 82 67 67 69 71 73 75 78
53 46 42 54 75 90 93 94 98 98 98 98 99 99 98 96 75 77 83 86 92 95 83 86 74 65 59 53 75 80 65 72 78 86 80 85 87 96 80 78 68 81 75 81 87 79 69 71 70 73 75 78 81 83
47 62 72 87 90 95 97 98 99 98 98 98 98 98 98 98 99 86 79 85 93 95 85 77 67 62 59 53 58 95 87 78 79 73 74 85 92 93 94 81 77 72 71 68 65 75 78 78 80 82 83 84 86 88
72 77 87 92 96 98 98 98 98 98 98 98 98 98 98 98 98 99 97 88 86 89 91 69 58 58 58 55 57 71 89 96 92 90 81 83 86 87 96 85 81 74 69 74 84 85 86 88 87 87 87 93 94 88
73 84 93 98 98 98 98 98 98 97 97 98 98 98 98 97 99 99 98 99 98 91 84 80 64 52 52 61 65 71 78 92 90 95 99 98 96 93 92 87 76 67 73 80 85 88 80 88 93 95 96 96 88 74
84 94 98 98 98 98 97 97 98 98 98 98 99 97 98 98 99 99 99 99 99 98 96 90 77 62 61 71 78 66 61 75 82 94 97 91 86 94 94 86 70 72 75 81 84 84 90 95 99 94 81 68 59 52
93 98 98 98 98 98 98 98 98 98 98 99 98 97 98 98 98 90 76 73 88 97 97 92 83 79 72 72 82 85 84 79 70 76 83 92 91 99 93 84 74 81 84 78 81 86 95 98 93 83 77 56 48 47
97 98 98 98 98 98 98 98 98 98 98 98 98 98 97 97 97 94 88 80 95 97 92 97 92 86 72 82 88 90 92 94 94 94 92 92 95 94 84 77 80 83 84 84 88 90 92 91 85 78 64 40 37 37
98 98 97 98 98 98 98 98 99 99 99 98 94 92 98 94 94 92 95 93 95 93 91 83 86 83 79 85 87 90 90 95 96 98 98 98 98 96 87 85 87 87 85 89 91 93 92 85 77 61 42 32 34 37
98 97 97 98 98 97 97 98 98 98 99 98 96 82 87 96 97 93 92 93 97 98 95 86 86 90 88 91 98 97 98 98 97 96 97 98 94 89 89 92 90 90 89 87 88 86 81 72 56 40 33 34 39 43
98 98 96 97 97 96 94 90 97 95 95 94 94 93 89 86 85 88 91 93 91 91 92 95 92 95 94 92 93 92 96 95 97 95 92 94 95 91 92 93 93 90 89 85 79 78 63 44 35 31 34 40 42 39
98 98 97 96 96 96 92 94 93 89 89 90 94 97 93 88 84 86 93 94 91 90 94 98 98 96 92 88 90 91 89 87 85 86 88 92 91 89 92 91 91 90 86 78 70 52 40 33 32 35 39 40 37 34
98 97 97 96 92 91 91 95 92 88 86 85 87 88 90 93 90 83 85 84 82 80 81 82 95 93 89 87 89 87 89 88 82 89 87 83 86 87 81 83 81 76 66 53 39 32 31 35 39 41 40 35 32 28
97 97 96 93 91 89 90 92 88 84 83 80 82 89 89 91 86 86 80 80 80 76 81 88 92 91 88 87 85 85 88 85 90 89 84 82 83 78 71 60 54 48 38 34 34 36 38 41 41 39 34 29 26 25
98 96 95 92 88 86 86 89 83 76 74 81 86 92 92 91 92 89 89 87 87 90 88 89 88 84 87 84 80 80 85 85 78 75 77 78 78 67 63 57 50 44 41 39 40 42 43 41 39 33 27 25 24 23
96 96 93 85 78 72 72 74 71 70 83 88 90 91 93 92 95 92 90 94 90 89 84 83 83 83 83 78 76 73 74 74 75 77 76 70 62 63 56 50 48 44 44 44 45 45 43 40 36 27 23 23 23 22
94 92 85 80 76 72 70 70 72 78 85 92 97 93 93 96 98 96 91 88 83 81 84 76 74 75 72 75 77 76 77 75 72 75 67 62 57 51 49 49 46 44 44 46 46 45 42 38 30 23 21 21 23 23
88 86 84 81 79 76 75 77 82 93 98 98 98 98 96 95 94 92 87 82 77 78 71 67 67 73 76 77 77 73 64 68 69 67 59 57 55 52 51 48 45 43 44 47 47 44 38 33 27 21 19 21 24 24
85 83 81 77 77 83 84 86 89 96 98 98 95 91 88 86 85 85 79 76 72 66 67 70 72 73 77 74 76 71 62 60 58 56 57 57 55 54 52 49 45 44 47 47 44 41 39 33 24 19 18 21 25 25
79 73 70 66 72 77 82 87 86 93 96 94 85 74 68 67 65 62 59 56 56 56 61 66 71 71 68 67 62 61 58 51 47 49 51 52 52 52 50 46 47 49 48 45 46 45 42 33 24 20 19 22 26 26
69 63 58 47 51 59 71 72 76 79 74 67 56 43 42 43 41 41 41 44 46 54 61 63 62 61 57 55 54 53 53 49 51 52 51 50 51 53 54 54 52 50 51 52 50 49 46 37 28 23 21 22 28 30
65 59 54 45 47 50 54 55 54 52 51 50 46 41 39 40 39 40 40 41 50 53 52 53 53 53 52 49 51 53 52 51 53 55 56 57 57 58 58 58 59 59 59 56 55 56 55 47 36 29 25 24 29 35
66 61 58 53 50 54 60 57 55 54 56 55 51 52 52 49 46 43 45 45 47 50 50 48 43 43 45 46 45 46 50 51 51 53 56 58 59 59 60 63 63 62 62 64 63 64 63 58 47 37 31 29 32 37
68 67 66 63 62 64 57 54 57 58 60 58 54 53 52 49 47 46 51 54 50 46 45 45 45 44 44 42 43 46 47 47 51 52 54 57 58 62 63 63 64 64 66 66 68 69 69 66 57 43 37 35 35 38
68 76 72 72 68 70 69 68 65 66 67 65 60 57 56 53 57 60 58 56 49 47 45 46 45 45 46 45 47 46 47 50 53 57 58 58 60 62 64 66 67 70 73 76 76 74 73 72 67 53 44 39 37 38
72 71 72 72 78 74 76 75 73 74 75 72 69 61 57 60 60 63 61 59 53 48 49 49 48 47 47 47 46 48 50 51 51 56 62 66 70 72 69 68 70 73 78 81 80 77 75 75 72 63 55 47 41 40
66 66 69 71 74 74 73 73 72 73 72 73 70 65 62 65 67 64 65 62 60 58 56 53 52 54 53 54 54 54 55 56 57 61 64 71 76 79 83 88 90 90 90 88 83 80 79 79 77 73 67 61 48 43
66 69 67 70 73 69 70 70 70 69 69 64 59 59 61 60 62 61 64 67 66 63 61 60 60 61 62 62 62 63 65 66 66 67 74 78 82 89 92 94 94 92 91 89 88 87 86 85 83 82 80 73 66 62
74 69 65 65 65 65 67 69 69 69 67 64 61 60 60 60 63 63 66 69 71 71 69 70 69 70 75 80 82 84 84 85 86 86 90 93 95 97 97 96 94 94 93 93 92 91 91 91 92 88 83 79 76 70
79 79 79 77 76 75 71 66 65 67 70 69 68 71 72 72 73 73 73 72 70 70 73 78 86 90 94 94 94 95 96 97 97 97 97 98 98 98 97 97 97 95 93 92 92 93 94 95 93 91 88 84 81 79
89 88 82 76 75 74 72 70 67 66 66 67 66 63 66 67 71 77 83 86 87 91 93 95 96 96 97 96 97 97 97 98 98 98 98 98 98 98 98 98 98 98 97 96 97 97 97 94 92 91 87 82 77 78
87 94 96 96 93 86 80 75 73 71 73 77 85 92 95 95 96 96 97 97 97 98 98 98 98 98 98 98 97 97 97 98 98 98 98 98 98 98 98 98 98 98 98 98 97 97 96 92 90 91 93 95 94 94
88 93 92 94 98 98 98 97 96 97 97 98 98 95 96 94 92 93 94 96 97 97 97 97 98 98 98 97 97 97 97 97 97 98 98 98 98 98 98 98 98 98 97 95 95 96 96 96 98 99 99 99 98 96

GFSWCAN_prec_cthk_156.txt.gz
RH
65 85 68 59 58 56 54 51 49 49 52 56 61 63 64 63 58 60 70 79 89 87 80 70 71 73 70 70 71 61 74 81 81 96 97 97 91 74 74 67 65 71 81 74 73 80 77 62 70 75 73 74 70 70
62 66 63 54 47 44 46 56 72 89 94 96 97 97 98 98 91 70 68 76 84 86 75 81 73 72 73 72 74 73 66 76 79 98 84 77 84 81 78 83 69 77 70 73 75 78 75 77 76 72 68 73 76 72
59 57 50 45 56 70 83 90 94 96 97 98 98 98 98 98 98 97 81 79 94 93 95 94 88 81 80 73 73 78 72 79 83 91 92 88 82 75 78 89 83 81 80 76 90 89 81 76 75 73 73 76 80 80
52 51 64 82 85 90 94 95 97 98 98 98 98 98 98 98 99 98 89 82 87 94 92 78 84 79 78 77 70 66 72 87 98 93 99 94 89 78 83 83 85 87 89 89 89 84 78 81 85 79 78 82 83 86
68 71 74 83 92 96 98 98 98 98 98 98 98 98 99 98 98 98 98 90 89 91 96 85 71 66 65 64 66 66 76 85 88 98 99 98 95 92 91 92 90 83 86 88 81 79 83 90 89 85 85 90 94 87
71 75 87 95 98 98 98 98 98 98 98 98 98 98 98 98 99 99 98 99 95 92 96 95 92 62 55 53 54 63 71 74 88 95 96 97 90 95 97 88 78 77 76 77 77 86 90 92 91 97 98 90 71 65
79 89 97 98 98 98 98 98 98 98 98 97 99 99 98 98 95 93 86 80 87 99 98 98 97 80 71 64 66 69 74 86 91 92 84 85 92 96 87 77 81 84 80 83 84 90 94 93 97 96 78 67 61 59
92 97 98 98 98 98 98 98 98 98 99 98 98 98 97 98 99 98 90 81 88 99 96 98 97 94 83 75 83 87 88 82 77 74 76 76 82 82 74 67 90 89 86 88 86 88 92 98 98 85 75 60 54 48
98 98 98 98 98 98 98 98 98 98 98 98 98 98 99 98 95 96 94 93 96 95 93 92 91 95 87 81 77 86 86 91 91 90 85 87 85 77 66 75 80 86 90 92 93 93 98 98 88 83 65 48 43 36
98 97 98 98 98 97 98 98 98 98 98 97 99 98 98 98 97 97 99 99 99 98 96 94 89 83 78 80 80 84 88 88 84 79 84 85 77 76 80 80 84 92 92 92 94 98 98 94 83 66 51 38 34 37
98 98 98 98 98 98 98 98 98 98 97 94 93 94 98 99 98 98 99 97 96 97 91 86 76 72 72 77 78 80 90 89 88 85 89 88 83 83 83 83 92 96 96 95 90 93 87 78 60 48 36 34 38 38
98 98 98 97 98 98 97 98 98 97 95 95 94 96 95 95 94 93 96 90 82 87 87 82 76 78 87 91 92 95 93 91 93 92 92 85 79 83 91 97 98 98 98 97 96 89 74 54 45 36 33 38 39 36
98 97 98 96 96 97 96 97 97 98 95 92 93 91 91 83 79 75 76 78 78 78 84 86 91 97 98 96 97 97 97 94 88 97 89 79 88 95 97 96 97 96 96 95 90 78 56 42 35 33 38 41 36 30
98 98 97 94 93 92 95 95 93 92 91 87 89 89 87 84 79 77 74 71 73 75 83 89 96 96 88 92 90 93 93 90 97 93 85 80 85 88 90 93 94 93 93 85 70 51 39 32 35 40 40 34 30 25
98 98 97 93 88 88 94 91 88 86 85 90 91 91 90 88 85 82 81 80 82 84 84 86 91 91 92 89 87 86 88 86 78 76 76 75 81 87 82 83 79 76 66 49 39 33 33 36 40 39 34 28 25 24
97 96 92 85 80 83 88 86 81 84 92 92 92 93 92 90 91 90 86 84 83 86 83 84 92 94 90 88 78 80 79 76 74 76 77 76 83 82 69 61 54 46 37 35 34 37 39 41 40 36 28 23 22 22
96 91 84 81 75 73 78 75 81 87 90 92 96 95 95 94 94 96 96 93 88 86 88 83 80 83 84 86 83 82 81 79 78 75 79 79 78 72 65 57 48 43 40 39 41 44 44 42 39 31 24 21 21 22
91 88 85 82 80 78 79 79 85 90 95 96 96 97 98 97 96 95 95 93 89 83 77 79 79 83 85 83 82 81 76 72 72 78 79 74 73 69 60 52 49 46 45 46 47 47 45 42 38 28 23 20 20 23
88 87 84 81 81 80 84 87 89 96 98 98 98 97 95 96 95 92 89 87 87 79 74 76 78 80 80 75 81 76 62 65 76 72 70 71 69 61 56 54 49 47 47 48 50 49 45 41 36 27 21 19 18 22
87 87 79 82 81 81 88 93 92 96 96 92 90 90 90 91 90 86 82 79 73 71 73 74 74 76 77 76 79 70 62 58 64 63 64 62 60 58 56 53 51 47 46 48 50 48 43 43 38 27 22 20 19 20
72 71 75 81 83 84 85 89 90 88 81 76 71 65 64 63 61 61 60 59 61 69 72 72 73 71 70 68 64 61 58 59 63 65 60 55 55 56 55 53 50 47 49 51 48 46 46 46 40 31 26 24 23 23
61 57 59 71 76 76 79 81 78 68 59 50 44 43 46 49 49 50 54 53 61 65 65 66 66 64 63 63 62 61 58 56 55 55 55 56 55 54 54 52 51 55 55 52 49 49 50 52 48 39 33 31 29 27
61 54 47 55 54 54 65 59 49 48 48 46 42 43 44 44 43 43 48 55 58 57 54 53 53 54 54 55 56 56 56 56 56 57 58 58 58 59 61 62 60 59 59 58 57 57 58 60 59 53 46 41 36 34
64 62 56 53 56 59 54 55 54 54 53 53 52 52 51 48 43 43 49 52 48 46 46 48 51 52 52 51 52 51 53 54 56 56 57 60 61 62 63 65 66 67 66 64 61 62 66 69 68 69 65 54 43 40
66 69 65 67 65 60 58 58 58 58 60 57 55 55 53 50 53 52 52 53 51 50 47 45 45 44 45 45 47 48 49 52 53 53 55 56 60 62 63 65 67 67 66 65 66 68 71 73 74 75 74 67 59 53
72 75 70 70 73 68 68 63 61 62 61 61 61 59 56 55 54 57 56 55 53 52 51 48 45 44 45 44 45 45 47 47 48 51 56 57 59 60 63 65 66 68 69 71 72 72 75 77 78 80 80 74 69 66
71 72 73 73 73 70 72 72 71 71 70 70 69 66 65 64 62 60 60 58 57 57 57 53 51 50 50 50 50 50 50 50 50 52 53 57 61 65 68 72 75 75 76 79 81 82 83 87 88 85 82 80 78 76
66 68 68 72 73 70 72 74 73 74 72 69 68 69 68 65 66 64 62 60 61 62 62 58 57 55 55 55 56 56 56 56 58 58 59 62 64 69 74 79 82 84 88 94 96 96 96 95 94 93 91 88 86 85
66 66 66 68 69 70 72 71 70 68 67 63 63 63 62 60 60 58 59 59 60 62 62 61 62 64 65 65 64 66 71 72 75 75 77 78 79 81 81 85 87 88 94 97 98 99 98 98 97 96 95 94 94 95
75 73 70 69 70 69 67 66 68 68 66 64 64 66 66 66 65 65 64 65 66 67 70 71 71 71 72 76 81 87 89 89 90 91 92 93 95 96 95 95 97 98 98 98 98 98 98 99 97 96 97 98 98 98
79 80 80 79 77 76 74 69 65 63 64 66 67 66 68 69 71 71 71 72 72 72 72 74 77 83 90 93 94 95 95 95 95 95 96 97 97 97 97 97 96 97 98 98 98 98 98 98 98 98 98 98 98 97
90 94 95 89 83 78 79 77 75 70 69 67 68 68 69 68 71 77 87 94 96 96 96 95 96 96 96 96 97 97 96 96 96 96 97 97 97 98 98 98 98 98 98 98 98 98 98 98 98 98 98 98 98 96
89 93 95 97 97 95 90 84 79 76 73 71 72 75 85 96 98 96 93 94 96 98 98 98 98 98 98 97 97 97 96 96 97 97 98 98 98 98 98 98 98 98 98 98 98 98 98 98 99 99 99 99 99 99

GFSWCAN_prec_cthk_159.txt.gz
RH
68 66 64 68 66 61 65 74 83 81 75 73 70 63 61 55 49 56 62 69 80 78 72 68 68 69 71 69 66 62 73 71 72 85 82 91 87 69 69 64 66 68 85 87 75 75 66 40 47 56 64 72 77 75
71 69 64 79 63 56 54 53 51 50 51 50 50 49 48 50 55 59 54 49 62 75 78 76 71 72 70 69 76 76 71 74 67 71 79 72 74 93 88 75 78 78 69 70 79 71 60 62 76 81 80 79 77 74
59 58 59 59 56 47 44 46 50 57 61 65 73 80 85 83 80 85 93 79 70 76 78 76 68 76 78 75 75 77 67 70 75 74 73 80 98 71 83 76 77 76 77 84 85 73 70 76 84 87 79 77 76 77
51 51 50 49 54 62 77 86 88 90 95 96 97 97 97 97 97 99 99 97 94 86 90 74 80 77 76 85 80 76 73 75 78 88 94 93 97 83 76 75 74 74 78 84 86 82 87 93 92 85 85 82 78 79
45 46 60 73 79 80 86 93 95 97 97 97 97 98 98 98 98 98 98 98 98 88 92 83 75 76 83 87 81 77 75 80 90 94 97 96 98 98 84 81 73 71 78 86 87 89 88 90 91 91 89 86 83 84
62 68 74 79 88 93 96 98 98 98 98 98 98 98 98 98 99 99 98 95 96 93 87 98 94 93 75 73 79 74 78 88 93 97 96 86 89 98 92 83 72 77 81 85 87 89 88 91 94 92 88 92 90 80
71 79 83 90 96 98 98 98 98 98 98 98 98 98 98 98 99 95 90 75 88 99 98 98 94 88 80 72 75 72 80 87 90 94 82 83 93 94 90 82 73 74 77 84 86 93 98 97 94 95 97 92 74 65
80 87 94 98 98 98 98 98 99 98 98 98 98 98 99 99 99 99 95 90 89 98 98 93 89 98 90 70 67 71 79 86 87 84 83 80 83 82 72 62 63 71 83 89 87 88 87 93 96 98 88 70 61 59
90 97 98 98 98 98 99 98 98 98 98 98 98 99 99 97 98 98 97 97 96 96 87 86 83 98 88 85 77 79 80 86 82 80 74 73 69 64 52 58 69 78 84 86 92 91 94 95 96 94 76 67 57 49
98 98 98 96 98 98 97 98 98 99 98 98 98 98 98 98 97 98 99 98 98 98 90 98 87 98 90 89 83 85 98 94 81 76 79 77 65 56 57 63 65 78 84 90 98 98 98 97 94 84 71 55 48 34
98 98 98 97 97 98 98 98 98 98 98 98 98 95 98 99 97 98 98 97 96 98 85 95 93 94 91 87 81 76 81 81 81 73 79 68 55 51 55 61 70 81 86 92 95 94 96 90 82 78 55 43 34 36
99 98 97 98 98 99 98 98 97 98 96 92 91 97 98 97 98 98 97 96 89 91 81 80 86 87 88 86 84 83 81 81 82 80 82 71 61 67 73 77 81 85 91 97 97 95 97 95 84 56 36 33 35 35
98 97 97 97 96 98 98 98 99 99 98 94 95 98 97 91 88 86 85 83 76 73 75 73 77 80 84 81 87 87 87 89 88 93 84 76 76 80 83 86 90 92 94 97 97 96 92 80 60 40 32 35 36 32
96 97 96 95 93 97 98 97 95 96 93 95 92 93 88 85 79 73 68 62 64 71 82 83 82 82 90 92 96 97 97 95 97 94 82 76 78 81 86 88 91 95 98 98 96 94 78 52 41 35 34 38 34 29
95 96 95 90 91 97 97 96 89 91 89 95 93 96 91 84 78 76 70 66 70 76 82 89 93 91 93 96 96 97 97 96 89 81 78 75 75 82 89 91 93 97 98 98 93 84 54 41 36 35 40 36 30 25
97 95 90 86 85 91 95 91 88 92 92 95 92 97 97 92 88 85 85 83 83 86 90 91 97 98 97 94 89 88 87 82 78 79 74 71 73 83 90 90 92 96 94 89 72 50 39 36 36 41 39 32 26 23
94 90 86 84 82 87 88 88 90 91 91 94 96 96 96 97 98 96 93 90 89 89 91 88 91 92 92 94 91 87 82 83 81 77 72 75 85 94 91 84 78 72 66 50 40 37 37 40 43 41 35 26 22 21
92 89 86 81 80 85 83 91 92 93 96 97 97 98 98 98 98 98 98 95 91 89 88 90 87 89 93 92 89 89 84 79 72 72 72 84 94 89 77 64 53 45 40 39 38 41 44 45 43 40 32 24 20 19
90 88 84 82 83 84 85 91 91 95 98 98 98 98 97 98 98 98 98 96 89 86 84 81 83 88 85 80 79 79 78 69 70 74 82 90 89 81 70 60 51 47 46 45 46 47 48 48 44 39 30 23 19 18
92 88 82 86 86 88 93 94 92 95 98 98 98 98 97 97 96 95 93 90 83 76 77 81 78 81 79 75 80 81 68 64 75 77 81 83 82 75 64 58 54 51 50 51 51 52 52 50 44 41 31 23 20 19
83 88 86 83 84 86 90 91 90 89 88 89 91 90 90 90 89 88 85 81 76 79 77 74 74 75 76 74 77 71 64 63 71 73 70 67 67 65 62 59 56 54 51 52 53 55 53 48 46 44 34 28 26 25
72 77 86 85 83 87 88 86 80 76 72 69 66 64 66 68 68 69 68 69 77 76 76 77 76 75 74 73 72 67 63 65 68 72 72 70 68 66 64 63 62 59 54 55 55 52 47 48 49 46 40 34 32 32
59 68 81 78 78 82 84 78 68 59 55 53 51 51 53 53 56 57 60 61 63 63 62 61 60 60 61 62 63 63 62 63 64 66 66 65 62 62 61 60 58 56 58 57 53 49 50 52 54 54 51 47 44 42
59 55 61 63 66 77 68 59 53 49 46 47 47 48 46 46 42 45 52 54 53 55 55 56 56 54 54 55 55 56 59 63 64 64 64 64 63 63 63 63 64 64 62 61 61 60 61 62 62 62 62 61 61 59
65 65 59 59 55 57 57 55 52 49 54 54 52 54 52 51 53 54 54 55 55 54 52 49 46 45 44 44 45 47 51 55 56 58 61 63 65 67 68 68 67 68 70 72 70 67 65 66 68 71 73 74 75 74
71 74 72 72 69 61 60 59 59 59 59 60 59 59 56 56 56 59 58 57 56 55 53 50 48 47 45 44 44 44 44 44 45 46 51 53 53 56 59 62 64 67 69 69 70 69 70 72 75 76 79 83 85 84
72 72 72 74 76 72 71 67 64 62 62 61 61 62 62 64 62 62 62 62 61 59 57 53 52 51 51 50 50 50 49 49 49 49 49 50 51 54 57 61 65 67 70 74 75 76 77 79 82 86 88 92 93 93
68 72 71 72 73 72 74 75 75 75 72 70 67 69 67 64 65 65 65 63 61 60 59 57 57 56 55 53 53 54 54 54 54 54 54 55 56 57 58 60 64 70 75 78 81 83 86 92 96 97 98 98 98 97
66 68 69 71 72 73 74 74 72 72 72 71 70 70 67 64 62 59 59 60 60 60 61 63 62 61 62 62 61 61 61 62 64 66 68 68 72 74 73 72 73 76 82 87 91 94 94 97 98 98 98 98 98 99
68 67 65 66 69 72 73 73 74 73 70 68 66 64 63 63 62 60 60 61 61 61 64 67 67 66 66 67 67 67 70 74 80 85 85 86 88 89 90 92 94 96 96 95 96 96 97 98 98 98 98 98 98 98
73 72 71 72 70 69 69 69 68 69 70 69 67 65 67 67 69 69 68 69 71 72 71 71 71 72 72 70 72 80 86 89 90 91 91 91 91 91 92 94 95 96 97 97 98 99 99 98 98 98 98 98 98 98
74 82 86 86 85 83 81 78 75 72 70 67 67 68 70 71 72 71 72 71 71 73 77 81 86 89 91 93 93 93 91 91 92 92 92 92 93 94 96 97 98 98 98 98 99 99 98 98 98 98 98 98 99 98
76 82 92 96 97 95 92 87 87 87 83 77 73 71 69 70 72 76 80 83 89 94 96 95 96 96 97 96 95 94 93 93 92 91 92 92 94 96 98 98 98 98 98 98 98 99 99 99 99 99 99 99 99 99

GFSWCAN_prec_cthk_162.txt.gz
RH
70 65 70 64 69 74 73 72 84 87 88 87 87 85 79 74 73 77 88 90 91 95 93 86 79 79 80 78 73 74 82 79 82 87 83 78 70 68 65 61 58 61 79 83 77 73 71 42 41 50 47 49 60 58
72 59 64 62 69 67 61 60 69 79 81 84 83 88 91 86 77 73 73 68 74 92 87 82 75 74 75 75 76 82 74 67 73 73 61 62 70 76 79 68 66 68 65 70 80 87 71 65 62 68 63 63 74 78
57 59 66 60 66 74 61 56 53 53 54 56 58 58 60 62 61 62 71 73 75 81 78 72 66 58 66 62 67 72 72 68 63 70 81 83 76 63 69 59 83 77 73 72 71 62 67 76 76 72 80 92 86 82
45 55 55 52 59 57 52 48 47 49 52 53 51 50 49 53 63 74 84 84 87 73 67 53 52 54 54 70 78 77 74 82 76 78 89 91 86 76 75 91 78 74 74 63 64 71 75 75 78 78 86 94 88 85
47 47 45 46 54 62 68 78 83 84 86 90 92 93 93 94 94 95 97 97 95 94 88 90 82 68 66 73 73 75 75 80 80 92 90 87 94 96 85 88 88 71 67 70 75 79 75 80 82 94 92 90 89 84
51 48 53 66 75 80 80 85 92 94 95 96 97 96 96 97 99 99 96 95 98 96 97 89 87 96 85 78 80 85 84 83 85 86 83 83 84 97 93 93 70 67 66 66 75 82 87 84 89 90 91 92 89 91
67 74 70 74 80 86 91 94 97 98 98 98 98 98 98 98 99 93 81 82 84 97 98 89 87 88 89 90 87 89 89 90 89 86 79 87 95 98 94 81 74 69 73 80 84 94 91 92 93 92 90 93 96 89
67 75 80 84 89 94 97 98 98 98 98 98 98 98 98 99 99 98 95 93 95 98 96 95 91 96 97 89 85 85 84 87 86 88 80 81 85 91 74 61 69 72 71 82 91 94 94 94 95 92 94 97 88 77
76 82 88 92 97 96 96 98 98 98 98 98 98 99 99 97 91 91 99 98 98 97 88 84 80 88 97 93 77 81 86 88 86 84 75 83 78 73 55 57 58 61 72 82 93 94 95 94 94 93 97 88 74 62
89 95 97 97 96 97 98 98 97 98 98 98 99 98 93 96 94 98 99 99 98 98 92 76 75 88 98 90 81 74 82 87 82 68 80 77 62 48 47 48 48 57 69 78 88 94 97 95 96 97 92 75 65 58
98 98 98 97 98 98 99 98 98 98 98 98 98 98 96 97 98 97 96 96 94 93 80 80 85 90 98 87 87 83 82 97 89 79 79 67 51 40 43 47 52 60 67 71 83 93 95 94 97 93 79 69 59 49
98 98 98 98 99 98 98 97 95 98 98 96 94 98 98 98 98 98 92 93 82 83 73 80 88 95 97 96 90 86 92 94 85 84 80 61 41 47 52 52 55 65 71 80 88 94 94 96 92 83 70 56 46 35
97 98 98 98 98 98 97 93 93 98 97 96 98 98 94 95 95 90 86 80 75 75 72 75 87 97 94 94 92 88 82 77 78 81 68 57 63 70 75 72 73 79 84 89 94 96 95 93 90 83 50 34 34 36
96 97 98 98 98 98 96 95 96 97 94 95 95 93 88 80 75 75 67 67 69 69 72 72 80 87 87 87 91 88 83 85 87 85 80 79 80 79 79 80 81 83 91 95 96 96 91 89 80 60 35 33 37 33
95 96 94 93 98 98 95 97 96 94 94 92 87 82 81 79 75 76 75 72 68 71 71 76 76 76 80 88 86 93 94 92 83 79 82 82 81 83 83 89 91 92 93 96 97 96 96 85 65 40 34 37 37 30
95 92 91 91 94 98 97 95 94 97 98 96 96 96 88 82 80 76 72 73 82 85 91 94 92 90 94 96 94 91 92 82 82 85 82 79 79 79 87 91 95 97 99 98 95 94 90 70 46 36 35 39 34 28
90 90 89 87 90 96 95 92 94 92 94 97 97 98 98 95 91 88 80 80 85 89 95 94 97 96 97 95 88 85 85 86 81 78 76 74 75 81 93 95 97 98 98 98 97 93 81 51 40 37 41 40 32 25
89 89 86 84 88 89 93 95 93 94 95 95 95 97 98 98 98 97 97 97 95 95 93 95 92 93 94 94 90 90 88 84 81 77 71 70 78 92 98 98 98 98 98 96 92 71 45 39 40 44 43 39 29 24
89 89 85 84 88 89 93 95 93 94 97 98 98 98 98 98 98 98 98 96 94 92 93 92 91 92 90 87 86 84 86 79 72 68 71 76 92 98 97 85 76 72 67 57 45 40 41 45 48 46 43 38 28 23
92 84 82 86 88 91 93 92 92 94 97 98 98 98 98 98 98 98 97 94 89 84 86 84 81 84 86 79 78 77 77 74 68 77 85 94 97 91 76 65 56 50 43 42 43 45 49 50 51 48 44 39 30 24
86 84 87 87 91 90 89 90 91 93 97 97 98 97 98 98 98 98 94 87 83 84 84 85 79 82 81 76 74 81 76 65 69 81 89 91 89 83 74 61 53 51 51 51 53 54 55 55 53 49 45 42 34 28
88 90 86 87 89 90 89 87 86 84 87 89 90 89 90 92 93 93 89 85 83 83 82 81 81 79 80 78 76 76 69 66 72 78 84 83 79 76 72 67 61 57 56 56 56 56 56 55 52 50 49 46 40 36
84 90 86 88 89 90 86 83 80 77 75 73 71 71 76 78 77 76 77 76 77 76 75 74 74 73 71 71 73 74 72 68 70 75 78 77 75 72 70 67 65 63 61 56 56 57 58 56 53 53 53 52 51 48
71 76 74 76 80 84 76 75 68 59 59 57 55 55 56 59 54 58 59 61 61 59 58 55 54 55 57 56 56 58 61 61 62 66 70 73 72 70 67 65 64 62 59 59 61 62 61 58 59 60 61 63 63 63
63 66 65 68 81 79 70 61 54 51 53 51 50 50 48 46 47 48 47 49 49 47 47 47 47 48 48 49 51 54 56 58 62 65 68 70 72 73 74 75 75 76 77 79 77 74 71 69 70 70 72 74 76 77
73 73 70 66 67 64 57 48 47 49 50 52 53 51 51 52 52 54 52 53 52 52 50 47 46 46 45 44 44 43 44 44 44 46 47 49 51 54 57 61 64 67 70 71 73 77 76 73 73 74 77 81 84 87
74 76 75 74 72 66 63 61 57 53 55 57 58 58 57 54 57 60 60 58 58 57 55 53 50 49 49 49 48 48 47 47 48 48 47 47 47 49 51 54 57 60 63 67 71 73 76 78 77 79 83 87 90 93
67 72 74 77 77 76 75 72 69 67 64 62 60 62 60 58 60 63 64 62 60 58 56 54 51 50 51 51 51 51 51 51 52 52 52 53 53 54 54 56 58 59 61 65 70 75 80 82 84 86 88 92 97 98
63 67 68 72 73 75 77 77 77 76 75 73 69 70 68 68 66 66 64 63 62 59 57 57 55 55 57 58 58 58 58 58 59 59 60 61 63 66 69 72 75 77 79 78 79 83 88 92 94 97 98 98 97 98
65 65 66 67 68 70 71 71 74 76 76 75 73 70 68 68 66 65 63 61 60 60 60 60 60 61 63 63 63 64 64 64 64 66 70 74 79 82 85 88 91 93 94 96 96 97 98 98 97 97 96 97 98 98
66 67 67 67 67 68 69 70 70 71 74 75 73 71 70 70 69 68 67 66 65 64 64 65 66 66 67 68 69 70 70 70 74 81 85 88 90 91 92 94 94 95 96 97 97 97 97 98 98 98 98 98 98 98
69 70 71 73 73 74 74 73 71 70 71 71 74 74 74 73 73 72 71 70 69 69 70 71 72 73 76 80 82 84 88 92 93 93 92 91 92 94 95 95 95 96 96 97 99 99 99 99 99 99 99 99 99 99
78 76 75 75 79 87 89 86 83 79 78 76 75 72 72 71 73 76 77 75 74 73 76 80 87 92 95 96 97 96 96 96 94 90 88 87 88 90 91 93 94 95 96 97 97 98 98 99 99 99 99 99 99 99

GFSWCAN_prec_cthk_165.txt.gz
RH
79 76 69 66 76 74 68 73 77 83 85 90 88 90 91 94 97 98 96 95 93 87 83 80 76 84 87 87 84 81 82 80 82 84 79 79 77 64 66 55 64 83 95 89 82 81 85 51 60 60 48 64 72 65
85 71 67 74 65 61 67 71 70 79 86 88 89 88 85 80 79 82 95 92 92 90 83 79 75 80 90 87 83 79 84 73 72 71 67 67 77 72 68 62 60 67 57 65 75 80 73 66 69 75 81 73 71 66
84 69 67 58 58 62 66 60 59 64 75 79 77 74 79 82 81 75 83 82 79 81 79 74 65 70 74 71 76 80 73 71 74 84 66 71 83 63 68 62 67 72 70 72 70 57 69 76 73 73 68 70 72 79
86 61 54 60 60 55 71 66 56 53 52 56 61 62 62 68 76 67 69 70 72 74 72 58 59 55 58 70 70 73 67 74 79 70 73 70 81 79 77 66 65 60 88 94 78 71 68 76 78 80 81 73 72 79
80 46 49 51 50 49 56 58 53 48 44 44 43 43 45 46 46 50 65 75 89 85 93 92 82 74 57 51 63 64 63 60 69 84 83 79 78 84 83 86 69 74 72 83 85 74 79 75 87 81 78 77 80 88
66 45 44 43 48 55 62 68 77 82 84 83 80 77 77 76 76 88 95 90 93 96 96 90 89 90 88 87 82 81 78 79 79 83 87 87 92 96 91 77 68 79 83 80 80 74 88 90 85 81 84 96 94 94
53 48 59 59 62 69 77 81 84 88 93 95 96 95 96 95 91 88 93 94 86 93 93 92 86 89 85 82 87 88 87 87 87 86 85 88 89 93 86 73 67 81 87 87 81 75 73 79 86 85 93 96 94 94
48 58 70 72 76 81 83 88 93 97 98 98 98 99 99 97 95 84 87 98 97 98 92 90 87 92 90 96 93 88 91 95 93 84 80 82 78 84 74 68 70 73 77 71 71 80 92 95 93 94 96 96 96 96
60 68 76 80 81 86 91 96 98 98 98 98 98 98 99 96 89 82 90 96 98 99 97 88 83 92 95 96 88 79 86 92 81 79 75 85 86 70 60 64 66 69 74 70 77 87 94 98 97 93 95 96 97 91
77 79 83 88 93 96 97 97 98 98 99 98 99 98 94 90 93 98 99 98 98 98 97 93 84 90 90 97 91 83 87 86 85 72 79 76 61 55 59 61 62 64 60 68 77 85 90 96 98 98 97 97 94 85
88 93 97 98 98 98 98 98 98 99 98 98 98 98 95 96 98 98 98 95 94 94 81 82 78 86 90 97 88 78 83 83 91 84 71 61 47 42 43 44 47 54 57 67 77 80 82 94 98 98 97 94 84 69
96 98 98 98 97 98 98 98 98 98 98 98 95 98 99 98 98 97 94 91 87 80 74 71 77 82 92 95 88 80 88 82 88 86 79 58 42 47 50 50 54 54 58 63 76 78 81 98 98 98 96 87 73 61
97 97 98 98 98 98 97 97 97 98 98 98 97 98 96 95 95 90 85 77 78 80 78 76 85 86 87 97 96 92 91 87 89 89 73 54 59 56 57 60 61 58 60 68 75 81 91 97 97 96 90 73 61 57
96 96 98 98 98 98 97 98 98 98 98 98 98 96 97 86 79 74 72 70 73 72 73 74 81 85 83 89 98 88 78 80 81 73 62 75 82 73 70 68 67 71 75 79 84 90 97 98 94 90 77 62 46 35
96 94 96 98 98 97 97 98 98 97 95 96 92 91 85 87 82 84 82 83 79 72 71 81 78 84 84 89 82 86 97 84 79 76 91 93 87 86 84 83 83 81 82 84 90 95 98 96 91 84 63 41 35 37
92 93 95 95 97 98 96 96 98 96 91 89 87 86 81 83 82 78 80 78 71 65 75 80 77 76 74 76 84 78 87 83 90 92 89 85 81 80 82 86 88 89 90 92 94 98 97 94 87 77 50 34 38 39
90 96 91 92 96 97 93 97 98 98 97 98 98 97 96 92 85 79 74 73 75 84 93 92 85 81 89 82 82 86 90 89 88 84 81 79 77 75 79 85 89 93 96 97 98 98 98 96 86 72 45 36 41 38
94 94 87 90 96 96 98 97 95 94 92 95 97 97 98 98 93 83 79 82 86 89 89 93 90 89 91 92 92 92 89 87 85 83 80 78 72 71 77 87 94 95 97 98 98 98 97 92 81 62 40 41 43 37
89 88 84 88 92 95 98 97 94 93 94 93 95 96 96 98 98 97 94 94 92 93 96 97 97 94 94 92 92 91 88 88 87 84 76 67 70 77 92 98 98 98 98 98 98 97 94 86 69 45 43 46 45 38
87 81 81 86 90 98 94 93 93 94 94 96 97 98 98 98 98 98 98 98 98 96 95 93 94 88 89 92 84 79 78 77 78 72 73 80 82 92 98 98 97 95 95 97 97 92 74 53 44 48 50 49 47 44
82 78 81 86 91 95 91 93 93 95 97 96 98 98 98 98 98 98 96 94 91 88 90 90 87 85 85 85 79 74 79 79 73 71 91 97 98 98 89 75 70 66 64 61 54 46 45 49 52 52 52 51 51 48
88 83 86 88 96 90 88 88 90 91 94 95 95 95 98 98 98 96 93 90 89 89 84 81 77 77 77 77 77 77 79 70 65 85 91 93 92 88 84 78 71 65 62 59 58 56 57 57 55 55 55 54 53 53
88 91 89 92 94 90 87 88 89 86 90 91 91 91 95 96 95 91 90 86 83 82 82 82 79 76 75 75 76 79 77 72 71 82 89 87 85 84 83 80 78 73 68 62 60 59 60 60 60 60 58 56 57 58
90 88 81 85 87 88 83 85 81 78 79 78 75 80 82 82 81 80 78 73 69 64 60 59 59 59 58 58 59 62 68 73 75 77 80 81 81 80 80 78 75 74 74 73 69 68 66 66 66 62 59 59 63 65
76 74 74 71 77 84 83 79 75 66 67 62 59 61 61 56 61 59 58 56 56 57 55 56 56 57 58 60 61 62 63 65 68 68 70 72 74 74 74 72 72 72 71 70 70 72 76 78 76 75 75 75 78 79
76 74 73 72 84 82 77 69 62 57 54 54 52 49 51 51 53 53 48 50 50 49 48 48 47 47 47 46 45 44 44 45 47 50 51 52 54 56 57 58 60 63 65 68 70 71 72 74 76 77 77 77 81 86
78 79 77 71 73 74 71 59 49 48 50 52 51 50 51 51 54 54 55 54 54 52 52 51 49 48 46 44 44 44 45 45 45 45 45 45 46 46 47 48 50 52 55 57 61 65 69 73 75 78 81 82 83 84
70 73 79 82 76 70 69 65 59 53 51 50 52 56 54 54 55 59 62 60 59 59 58 55 52 50 48 46 45 44 45 45 47 48 49 50 50 51 51 52 53 55 56 58 60 63 66 69 72 76 80 83 87 89
59 66 72 75 79 81 80 76 72 69 66 64 62 60 60 58 58 61 61 63 63 62 60 57 55 51 50 48 48 48 49 50 53 53 55 57 58 58 58 60 63 66 69 72 75 80 83 86 87 89 91 93 95 97
62 61 60 64 70 74 77 80 82 82 81 78 74 70 68 68 68 68 69 69 68 65 63 60 58 57 57 56 56 56 55 55 55 57 59 61 63 65 68 73 79 83 86 88 89 90 91 94 96 98 98 98 98 98
65 64 66 67 65 64 69 73 75 78 80 81 82 82 80 77 75 73 71 69 68 67 65 65 64 64 63 63 62 61 61 59 60 62 63 64 69 79 84 87 88 91 93 94 94 94 94 95 97 98 98 98 98 98
72 71 69 68 68 70 71 71 71 69 70 73 76 75 74 75 74 72 71 71 71 71 69 68 67 67 68 68 67 66 66 69 73 76 81 87 89 91 91 91 91 92 93 95 96 98 98 98 99 99 99 99 99 99
78 79 79 75 73 71 74 78 76 76 74 70 68 69 70 72 73 73 73 73 74 75 74 73 73 72 72 73 75 80 86 89 91 90 88 86 86 87 88 89 91 93 94 95 96 96 97 98 99 99 99 99 99 99